Location: Franzen
(48.6167°N, 15.3833°E)
Time: 18:34:08
(UTC+00:00)

A-11 Canister half - Pass Details

Date: 01 August 2021
Orbit: 1515 x 1685 km, 47.2° (Epoch: 19 September)

Event Time Altitude Azimuth Distance (km) Brightness Sun altitude
Rises 14:47:12 0° 206° (SSW) 4,751 12.1 35.8°
Reaches altitude 10° 14:50:36 10° 198° (SSW) 3,794 11.6 35.3°
Maximum altitude 14:58:58 35° 137° (SE) 2,432 10.1 33.9°
Drops below altitude 10° 15:07:35 10° 78° (ENE) 3,918 10.7 32.5°
Sets 15:11:08 0° 70° (ENE) 4,924 11.1 32.0°
